KC7MRQ Weather Reports


Display with metric or nautical units.
time (UTC)temp
F
wind
direction
speed
MPH
gust
MPH
rain 1hr
in
rain 24hr
in
rain mn
in
humidity
%
barometer
mb
20260903124521 45 295 15.0 21.0 0.00 0.01 0.00 77 1007.0
20260903123027 45 278 10.0 16.0 0.00 0.01 0.00 77 1006.7
20260903121521 46 285 10.0 13.0 0.00 0.01 0.00 76 1006.5
20260903120014 46 133 2.0 5.0 0.00 0.01 0.00 76 1006.3
20260903114514 46 300 10.0 14.0 0.00 0.01 0.00 74 1006.2
20260903113014 46 287 8.0 14.0 0.00 0.01 0.00 76 1006.1
20260903111511 45 297 9.0 14.0 0.00 0.01 0.00 77 1006.1
20260903110011 45 311 3.0 8.0 0.00 0.01 0.00 77 1005.9
20260903104509 46 123 1.0 8.0 0.00 0.01 0.00 76 1005.9
20260903103006 46 295 15.0 20.0 0.00 0.01 0.00 74 1005.5
20260903101504 46 289 16.0 21.0 0.00 0.01 0.00 76 1005.5
20260903100002 45 275 13.0 17.0 0.00 0.01 0.00 76 1005.6
20260903094501 46 277 10.0 17.0 0.00 0.01 0.00 76 1005.5
20260903093059 45 293 11.0 15.0 0.00 0.01 0.00 76 1005.3
20260903091613 46 235 2.0 13.0 0.00 0.01 0.00 75 1005.4
20260903090058 46 312 8.0 15.0 0.00 0.01 0.00 74 1005.2
20260903084557 46 283 10.0 16.0 0.00 0.01 0.00 75 1005.2
20260903083055 46 285 14.0 19.0 0.00 0.01 0.00 75 1005.1
20260903081551 46 280 11.0 17.0 0.00 0.01 0.00 74 1005.1
20260903080051 46 277 12.0 17.0 0.00 0.01 0.00 74 1005.0
20260903074551 47 276 6.0 13.0 0.00 0.04 0.00 74 1005.1
20260903073047 47 286 12.0 16.0 0.00 0.04 0.00 74 1005.0
20260903071548 47 298 4.0 12.0 0.00 0.04 0.00 72 1005.1
20260903070044 47 293 11.0 18.0 0.00 0.04 0.00 73 1004.9
20260903064542 47 289 13.0 18.0 0.00 0.12 0.00 74 1004.9
20260903063045 47 284 11.0 18.0 0.00 0.12 0.00 74 1004.8
20260903061541 48 296 13.0 17.0 0.00 0.12 0.00 73 1004.8
20260903060041 48 283 13.0 20.0 0.00 0.12 0.00 73 1004.7
20260903054536 48 302 11.0 17.0 0.00 0.13 0.12 72 1004.7
20260903053054 49 290 14.0 17.0 0.00 0.13 0.12 72 1004.8
20260903051535 49 292 12.0 16.0 0.00 0.13 0.12 71 1004.8
20260903050034 49 293 10.0 17.0 0.00 0.13 0.12 72 1005.0
20260903044531 50 289 9.0 14.0 0.00 0.13 0.12 69 1005.0
20260903043035 50 291 11.0 14.0 0.00 0.13 0.12 69 1005.2
20260903041532 51 298 10.0 14.0 0.00 0.13 0.12 67 1005.2
20260903040036 51 306 10.0 13.0 0.00 0.13 0.12 66 1005.1
20260903034529 51 313 5.0 10.0 0.00 0.14 0.12 65 1005.0
20260903033028 52 311 9.0 11.0 0.00 0.14 0.12 63 1004.9
20260903031529 52 254 8.0 10.0 0.00 0.14 0.12 64 1005.0
20260903030027 53 256 9.0 12.0 0.00 0.14 0.12 61 1004.8
20260903024527 53 264 10.0 12.0 0.00 0.14 0.12 60 1004.7
20260903023025 53 345 7.0 10.0 0.00 0.14 0.12 60 1004.8
20260903021525 55 284 4.0 7.0 0.00 0.14 0.12 57 1004.9
20260903020024 57 169 0.0 4.0 0.00 0.14 0.12 54 1004.9
20260903014523 58 281 2.0 14.0 0.00 0.14 0.12 52 1004.7
20260903013024 58 161 7.0 14.0 0.00 0.14 0.12 51 1004.5
20260903011524 59 211 4.0 14.0 0.00 0.14 0.12 50 1004.1
20260903010021 59 314 4.0 17.0 0.00 0.14 0.12 49 1004.1
20260903004524 60 260 5.0 17.0 0.00 0.14 0.12 50 1003.8
20260903003021 59 187 9.0 19.0 0.00 0.14 0.12 51 1003.7
20260903001521 60 168 13.0 29.0 0.00 0.14 0.12 50 1003.9
20260903000021 60 167 11.0 21.0 0.00 0.14 0.12 47 1004.0
20260902234518 61 175 9.0 25.0 0.00 0.14 0.12 48 1004.2
20260902233017 61 173 10.0 21.0 0.00 0.14 0.12 48 1004.4
20260902231516 61 189 10.0 21.0 0.00 0.14 0.12 48 1004.3
20260902230015 61 151 12.0 24.0 0.00 0.14 0.12 50 1004.0
20260902224515 61 193 2.0 14.0 0.00 0.14 0.12 50 1003.9
20260902223014 59 263 15.0 31.0 0.00 0.14 0.12 54 1003.8
20260902221519 60 270 15.0 25.0 0.00 0.14 0.12 54 1004.0
20260902220023 62 254 14.0 26.0 0.01 0.14 0.12 43 1004.1
20260902214512 62 200 9.0 15.0 0.01 0.14 0.12 47 1003.7
20260902213011 58 186 9.0 23.0 0.01 0.14 0.12 53 1005.0
20260902211510 55 257 22.0 36.0 0.01 0.14 0.12 63 1003.6
20260902210024 51 285 21.0 38.0 0.00 0.13 0.11 70 1003.4
20260902204512 54 278 33.0 58.0 0.00 0.13 0.11 61 1003.5
20260902203008 60 117 32.0 50.0 0.00 0.13 0.11 44 1003.1
20260902201510 73 183 11.0 28.0 0.00 0.13 0.11 36 1000.9
20260902200003 71 86 6.0 15.0 0.00 0.13 0.11 43 1000.8
20260902194558 70 192 7.0 14.0 0.00 0.13 0.11 45 1001.1
20260902193054 68 170 5.0 9.0 0.00 0.13 0.11 52 1001.3
20260902191600 66 175 5.0 14.0 0.00 0.13 0.11 54 1001.6
20260902190048 67 148 4.0 16.0 0.00 0.13 0.11 55 1001.9
20260902184546 67 160 5.0 17.0 0.00 0.13 0.11 55 1002.0
20260902183047 65 149 5.0 11.0 0.00 0.13 0.11 59 1002.2
20260902181541 64 196 2.0 10.0 0.00 0.13 0.11 60 1002.5
20260902180053 64 50 5.0 12.0 0.00 0.13 0.11 60 1002.6
20260902174535 64 169 3.0 11.0 0.00 0.13 0.11 59 1002.8
20260902173033 61 122 5.0 12.0 0.00 0.13 0.11 67 1003.0
20260902171531 60 96 3.0 14.0 0.00 0.13 0.11 71 1003.0
20260902170025 58 102 0.0 7.0 0.00 0.13 0.11 76 1003.0
20260902164524 58 106 3.0 7.0 0.00 0.13 0.11 75 1003.1
20260902163026 58 73 3.0 8.0 0.00 0.13 0.11 75 1003.2
20260902161519 57 71 3.0 9.0 0.00 0.13 0.11 76 1003.4
20260902160017 56 133 5.0 10.0 0.00 0.13 0.11 77 1003.6
20260902154521 55 87 4.0 10.0 0.00 0.13 0.11 81 1003.5
20260902153022 53 197 2.0 8.0 0.00 0.13 0.11 85 1003.6
20260902151518 51 345 7.0 10.0 0.00 0.13 0.11 89 1003.7
20260902150011 50 345 5.0 9.0 0.00 0.13 0.11 91 1003.9
20260902144524 48 298 9.0 13.0 0.00 0.13 0.11 94 1004.1
20260902143012 48 289 11.0 15.0 0.00 0.13 0.11 93 1004.1
20260902141508 48 300 8.0 12.0 0.00 0.13 0.11 93 1004.0
20260902140008 47 293 8.0 13.0 0.00 0.13 0.11 94 1004.0
20260902134507 47 285 11.0 15.0 0.00 0.13 0.11 93 1004.0
20260902133003 47 294 11.0 15.0 0.00 0.13 0.11 93 1004.3
20260902131503 47 290 10.0 16.0 0.00 0.13 0.11 93 1004.4
20260902130105 48 296 10.0 14.0 0.00 0.13 0.11 92 1004.5